RH
13 14 14 14 14 14 16 16 18 21 19 19 20 19 16 17 18 15 15 17 16 17 18 17 21 25 22 21 21 21 23 27 27 28 31 37 44 48 49 53 58 63 65 68 71 74 76 76 74 73 72 69 65 60 56 55 54 50 48 50 54 58 59 57 56 57 57 57 56 54 52 50 47 44 40 38 39 39 37 34 32 30 27 24 26 29 26 20 20 21 19 19 19 19 20 21 20
13 14 14 14 15 15 17 18 22 24 19 18 20 19 16 16 16 14 16 17 17 17 16 18 23 22 20 20 19 19 23 24 22 24 28 32 37 40 42 46 50 55 59 61 63 66 70 70 68 68 66 64 61 56 50 47 46 42 40 41 45 50 50 49 50 52 53 51 50 48 46 44 41 36 32 33 36 34 32 29 27 25 23 22 26 29 26 20 19 20 19 18 17 18 18 18 17
14 14 15 15 16 17 19 20 22 25 20 19 20 19 17 15 16 16 17 17 17 18 18 21 22 20 18 19 19 17 20 21 21 24 27 31 33 34 37 41 44 48 51 53 53 53 57 58 59 58 55 55 52 48 42 38 37 36 35 34 36 39 41 43 44 46 48 45 41 39 38 39 33 26 25 27 30 28 25 23 22 20 19 21 25 28 26 21 18 18 18 14 14 13 13 13 13
14 15 15 15 18 19 24 25 24 24 20 21 19 17 18 17 17 17 16 18 19 19 19 20 21 19 18 20 20 19 22 22 21 23 24 28 30 30 32 36 40 43 46 48 47 46 45 45 45 44 41 40 39 36 32 29 28 28 27 26 25 26 28 32 34 36 39 38 36 34 32 29 23 20 19 19 22 23 21 18 16 14 16 19 23 26 27 21 14 14 13 10 10 10 10 10 10
14 15 15 16 18 20 25 25 24 21 18 19 16 15 19 18 17 16 17 19 19 18 17 18 21 20 20 21 21 20 23 23 21 21 21 24 26 29 30 31 35 38 41 43 44 43 42 40 38 34 29 27 26 25 22 20 19 18 17 16 14 14 14 16 22 24 24 25 26 26 24 19 15 15 13 13 16 17 16 14 12 14 16 19 21 25 27 21 14 13 12 12 10 10 11 11 10
15 15 16 16 17 19 22 21 20 19 18 18 14 14 17 17 16 16 18 20 18 17 16 18 20 21 22 24 23 23 25 23 21 21 21 23 24 28 29 29 31 33 36 39 41 40 39 37 33 28 23 21 20 19 18 16 14 13 12 10 9 9 9 8 15 20 17 16 17 17 16 14 11 10 10 11 11 11 13 13 15 16 17 20 22 25 25 22 21 18 14 14 11 11 11 12 12
15 16 17 17 18 19 21 22 22 19 17 17 14 14 16 16 15 16 18 19 18 16 15 17 19 20 21 24 26 26 26 23 22 22 22 23 24 26 27 28 29 30 33 35 36 36 35 32 27 23 19 18 19 18 18 15 13 12 11 10 9 8 8 7 12 17 15 13 12 12 13 11 9 9 9 9 9 10 12 16 18 16 17 21 22 26 26 26 28 22 14 13 11 12 13 13 14
16 17 18 19 22 22 23 22 23 20 16 17 16 15 16 15 15 16 18 17 17 15 15 18 19 18 19 23 26 27 26 24 22 22 23 23 24 24 25 27 28 28 29 30 31 31 29 26 23 20 18 18 18 18 18 17 15 13 12 11 10 10 9 9 12 15 12 12 12 12 13 11 10 13 11 8 9 9 13 17 18 16 18 20 21 26 28 29 30 23 16 14 12 13 14 15 15
16 18 18 21 23 23 24 21 19 18 16 18 16 15 16 15 15 16 17 16 15 14 16 18 16 15 17 23 26 26 27 25 22 22 23 23 24 25 25 26 27 27 26 26 26 26 25 24 23 21 20 19 19 19 19 19 17 15 14 13 13 12 11 11 12 14 12 11 12 12 13 12 14 19 16 12 10 10 14 18 18 17 19 20 21 23 26 28 28 23 17 14 14 15 16 17 17
17 18 18 22 24 20 20 19 17 18 16 17 16 15 16 14 15 16 16 15 14 14 16 17 15 15 19 24 25 25 26 24 23 23 23 23 24 25 25 26 28 27 26 25 25 25 25 25 24 23 22 21 20 20 20 20 19 18 17 16 15 13 13 12 12 13 13 12 11 11 13 16 20 23 18 14 14 11 15 20 19 17 19 20 21 22 24 26 24 19 15 14 14 15 16 18 19
18 19 19 22 24 19 18 18 18 19 17 17 16 15 15 14 15 15 15 14 14 15 16 15 15 17 21 23 23 23 24 24 23 23 23 24 23 24 25 26 28 28 27 26 26 27 27 27 26 26 25 23 21 21 21 21 20 20 19 18 17 15 14 14 13 13 13 12 12 11 13 17 20 19 16 15 15 13 15 19 18 16 17 19 21 21 22 23 21 15 13 13 13 14 16 18 19
18 22 24 24 23 19 19 18 17 20 20 17 15 14 14 14 14 14 14 14 13 15 15 15 14 16 20 23 22 21 23 23 23 23 23 24 24 24 25 26 28 28 28 27 28 28 29 28 27 27 26 25 24 22 22 22 22 21 21 20 20 18 15 15 14 13 13 13 12 13 13 15 15 14 14 15 15 13 15 18 17 15 15 16 19 21 21 22 19 14 13 13 13 15 16 18 20
19 24 25 23 23 21 20 18 17 20 18 15 13 13 13 13 13 13 13 13 13 14 14 14 14 14 18 21 20 20 22 22 22 23 23 24 24 24 25 26 27 28 29 28 28 29 29 29 27 27 26 25 25 24 22 23 24 23 23 23 22 21 18 16 15 15 14 14 14 14 14 14 14 13 13 14 14 14 15 17 15 14 14 14 17 19 21 20 15 12 13 15 16 17 17 19 21
19 22 23 23 24 23 21 18 17 17 14 13 13 12 12 12 12 12 12 12 12 13 12 14 15 13 15 17 18 19 21 22 22 23 24 24 24 24 25 26 26 27 28 29 28 28 28 28 28 28 27 26 27 25 23 23 25 25 25 24 24 24 22 20 19 19 19 17 16 16 16 15 15 14 13 13 14 14 14 14 13 13 13 14 15 16 18 17 14 14 16 19 19 19 20 21 22
18 19 25 25 22 20 19 17 18 17 13 13 11 10 11 10 11 10 11 11 11 11 11 13 14 13 12 13 15 16 19 21 22 23 24 25 25 25 25 25 26 26 27 28 28 27 27 27 28 29 29 28 28 27 25 24 24 26 26 26 25 26 25 24 23 23 23 22 20 19 18 18 17 17 15 14 14 14 15 14 13 14 14 15 15 14 16 15 14 17 20 22 21 22 22 22 23
19 20 26 25 20 18 17 17 18 16 13 13 11 10 11 9 10 10 10 10 10 11 11 12 13 12 12 12 12 14 18 20 22 24 24 25 25 25 26 26 26 26 27 27 27 26 26 26 26 27 28 28 29 29 28 26 25 26 27 28 28 27 27 27 26 25 25 24 23 22 20 20 19 19 18 17 15 15 16 15 15 16 16 16 16 16 16 15 16 19 22 22 23 23 22 23 23
19 21 25 22 20 19 16 16 16 13 13 13 11 10 10 10 9 9 10 10 10 10 10 12 12 12 12 12 12 12 16 19 22 24 25 26 26 26 26 26 26 26 26 27 27 26 26 26 26 26 26 27 28 29 29 29 27 26 28 29 30 29 29 28 28 28 27 26 26 25 23 22 21 21 21 20 18 17 16 17 17 18 18 18 17 17 17 16 17 21 24 24 24 24 23 23 23
20 25 24 20 20 18 16 16 14 13 12 12 11 11 10 10 10 9 10 10 10 10 10 11 11 11 12 12 12 12 14 17 20 22 23 24 25 26 27 26 25 25 25 26 26 26 26 26 26 26 26 26 26 27 28 28 28 26 26 27 28 29 29 29 29 29 29 29 28 27 26 25 24 24 23 22 22 21 19 19 18 19 19 18 18 18 18 17 19 23 26 26 26 26 26 25 25
21 26 22 20 21 17 15 15 13 12 11 11 11 10 10 10 9 9 10 10 10 11 10 10 10 11 11 12 13 12 12 15 18 18 19 21 23 24 25 25 25 24 24 24 25 25 25 26 27 27 27 26 26 27 27 28 29 28 27 27 27 28 29 30 30 31 31 30 30 30 29 27 27 26 26 25 24 24 23 22 21 20 20 19 18 18 18 18 20 24 27 27 27 27 27 28 28
19 22 21 21 22 16 14 13 12 11 10 11 11 10 10 9 9 10 10 10 11 11 10 10 10 10 10 11 12 13 13 14 16 16 15 17 19 21 22 23 23 23 23 24 24 24 25 25 27 28 28 28 27 27 28 29 30 31 30 29 29 29 29 30 31 31 31 32 32 31 31 30 29 28 27 27 27 27 26 26 25 23 22 22 21 20 20 19 20 25 28 28 28 28 29 30 30
18 20 21 20 19 15 14 13 12 11 11 11 11 11 10 9 9 9 10 10 11 11 9 9 9 9 9 10 11 13 13 13 15 15 14 15 16 18 19 20 21 22 22 23 24 24 24 25 26 27 28 28 28 29 29 29 30 31 32 32 31 31 30 31 31 32 32 32 33 33 33 32 31 30 29 28 28 28 28 28 27 27 25 25 25 23 22 21 21 24 27 29 30 30 31 32 32
17 18 19 18 17 15 14 13 13 12 11 11 11 11 10 9 9 9 9 10 11 10 9 9 9 9 9 9 10 12 13 13 13 13 13 13 14 15 17 19 21 22 23 23 23 24 24 25 26 27 27 28 29 30 30 30 30 31 32 32 32 32 32 32 32 32 33 33 34 34 34 34 33 33 31 29 28 28 29 29 28 28 28 27 27 26 25 23 22 23 26 29 30 31 32 33 33
17 17 17 17 17 15 14 14 13 12 12 12 11 11 10 9 8 8 8 8 9 8 9 9 9 9 9 9 10 11 12 12 12 11 12 12 12 13 14 16 18 20 21 21 23 23 25 26 27 27 28 28 29 30 30 31 31 31 32 32 32 33 34 34 34 34 34 34 35 35 36 36 35 35 34 32 31 30 29 29 29 28 28 28 28 28 27 25 24 24 26 28 30 31 32 33 34
17 17 17 17 17 15 14 13 13 13 12 12 11 11 10 9 9 9 8 7 8 8 8 8 9 9 9 10 10 10 11 11 11 11 11 11 12 12 13 14 15 17 19 20 21 23 24 25 26 27 27 27 28 29 30 30 31 31 31 32 32 33 33 34 34 35 35 35 36 36 37 37 37 37 36 35 34 33 30 29 29 29 29 28 29 29 29 28 28 28 28 29 30 32 32 33 34
16 17 16 17 17 15 13 13 13 13 12 12 11 11 11 10 9 9 8 7 7 8 8 8 8 9 9 10 10 10 10 10 11 11 11 12 13 14 14 14 15 16 16 17 18 20 21 22 24 25 25 26 26 28 28 29 30 30 30 30 30 31 32 33 34 35 36 36 37 37 37 37 38 38 38 37 36 36 34 32 31 30 31 30 31 31 32 32 31 31 31 31 31 32 33 33 34
15 16 16 16 16 15 14 13 13 13 13 12 11 12 11 10 9 8 7 7 7 7 7 8 8 8 9 9 10 10 10 10 10 10 11 12 13 14 14 14 15 14 14 15 16 17 19 20 21 22 23 24 25 26 26 26 27 28 28 28 29 30 31 32 34 35 35 37 38 38 39 39 39 39 39 39 38 38 37 36 34 32 32 32 33 33 33 33 33 33 33 32 33 33 33 34 34
14 15 15 16 16 14 14 13 12 13 13 12 12 13 12 10 10 8 7 7 7 7 7 7 8 8 8 9 9 9 10 10 10 10 11 12 12 12 12 13 13 13 13 14 14 15 17 18 19 20 21 22 23 24 25 25 25 26 27 28 28 29 29 31 33 34 36 36 38 38 39 39 40 40 40 40 40 39 39 38 37 35 34 34 34 34 34 34 34 34 34 34 34 34 34 33 34
13 14 14 15 14 13 13 13 12 11 12 12 12 13 12 11 10 9 7 7 7 7 7 7 7 8 8 9 9 9 9 10 11 11 10 10 10 10 10 11 11 12 12 12 13 14 15 16 17 19 20 20 21 22 23 24 24 24 26 28 28 28 29 30 31 33 35 36 37 38 39 40 40 41 41 41 41 41 40 40 38 37 35 34 34 35 35 35 35 35 35 35 35 35 35 35 35
13 13 13 14 13 12 12 12 12 11 11 11 10 11 11 11 10 8 7 7 7 7 7 7 7 7 8 9 9 9 9 10 10 10 10 10 10 10 10 10 11 11 11 12 13 13 14 15 16 17 18 19 19 20 21 22 23 23 24 26 28 29 30 30 31 32 34 36 38 38 39 39 40 40 41 41 41 41 41 41 40 39 38 36 35 35 35 36 35 35 35 35 36 36 37 37 36
12 13 14 14 12 12 12 12 12 11 11 10 9 10 10 10 9 8 8 7 7 7 7 7 7 8 8 8 9 9 9 9 10 10 10 10 10 11 11 11 11 11 12 13 13 13 14 14 15 16 16 17 18 19 19 20 21 21 21 23 26 28 30 30 30 31 33 35 37 38 39 39 39 40 40 41 41 41 41 41 41 40 40 39 38 37 37 37 37 37 37 36 36 36 37 37 37
13 12 15 16 13 12 12 13 12 10 11 10 8 9 10 9 8 7 8 7 8 8 7 7 7 8 8 8 8 8 9 9 9 10 10 10 11 11 11 11 11 11 12 12 13 13 14 14 15 15 15 16 17 17 18 18 19 19 19 20 22 24 27 28 29 30 31 32 35 37 38 38 39 39 40 40 41 41 41 41 41 41 41 41 40 40 39 39 39 39 39 38 38 38 37 37 37
17 13 15 17 13 13 13 13 13 11 11 10 8 9 9 9 8 8 8 8 8 8 7 8 8 8 8 8 8 8 8 9 9 10 10 10 10 11 11 11 11 12 12 12 13 13 14 14 14 14 14 15 16 16 16 16 17 17 18 18 19 20 22 24 25 27 28 29 31 34 36 38 38 38 40 40 40 40 40 40 41 41 41 41 41 40 41 41 41 40 41 41 40 40 40 39 39
19 16 16 16 13 13 13 13 14 13 13 11 9 9 10 10 9 9 9 9 8 8 8 8 8 8 8 8 8 8 8 8 9 9 9 10 10 10 11 11 11 11 11 12 12 12 13 13 13 13 13 14 14 14 15 15 15 16 16 17 18 18 19 20 21 23 23 24 26 28 32 35 37 37 37 38 40 40 40 41 41 41 41 41 41 41 41 41 41 41 41 41 41 41 41 41 41
16 17 18 17 16 13 12 13 14 14 13 12 11 11 10 10 9 8 8 8 8 8 8 8 8 8 8 8 8 8 8 8 8 8 9 9 9 10 10 11 11 11 11 11 11 12 12 12 12 12 12 13 13 14 14 14 15 15 16 16 17 18 18 19 20 21 21 21 21 23 27 32 36 37 37 38 38 38 39 40 40 41 41 41 41 42 42 42 42 42 42 42 41 40 40 41 41
13 15 14 15 16 14 13 14 14 15 13 13 13 12 11 11 10 8 8 8 8 8 8 8 8 8 8 8 8 8 8 7 8 8 8 9 9 9 10 10 10 10 10 10 11 11 11 11 11 12 12 12 12 13 13 14 14 14 15 16 17 17 17 18 19 20 20 20 19 20 25 30 33 34 36 37 37 36 37 38 38 38 39 40 41 41 42 43 42 42 41 41 41 40 41 42 42
13 15 14 14 16 15 15 15 16 16 14 13 14 12 12 12 11 10 8 9 9 8 9 8 8 8 8 8 8 8 8 7 7 8 8 9 9 9 9 10 10 10 10 10 10 10 10 11 11 11 12 12 12 13 13 13 13 14 14 15 15 15 15 16 16 17 18 20 20 23 28 30 30 31 33 34 35 36 37 39 38 38 39 39 40 42 42 41 41 39 39 41 42 42 42 42 42
14 16 17 17 15 14 15 16 17 16 14 14 17 16 15 13 12 11 9 10 10 9 8 8 7 7 7 7 8 8 8 8 8 8 8 9 9 9 9 9 10 10 10 10 10 10 10 11 11 12 12 12 12 12 13 13 13 13 14 14 14 14 15 15 15 15 16 17 21 26 31 32 33 34 35 36 34 33 35 37 37 39 40 37 38 40 39 39 41 42 43 44 44 43 44 44 44
15 15 16 16 16 15 15 16 17 16 13 15 19 17 14 13 12 11 10 10 10 9 8 8 7 7 7 7 7 7 8 8 8 9 8 9 9 9 9 9 10 10 10 10 10 10 10 10 11 11 11 12 12 12 12 13 13 13 14 14 14 15 15 16 16 17 17 18 19 23 26 27 30 32 32 34 33 33 35 35 35 36 37 36 38 40 40 40 41 42 42 43 44 45 46 46 46
18 17 15 15 17 17 16 16 18 17 14 15 19 16 12 13 13 11 12 11 10 9 9 8 8 7 7 7 7 7 7 7 7 8 8 8 8 9 9 9 9 9 9 9 9 10 10 10 11 11 11 11 12 12 12 13 13 13 14 15 16 16 17 17 18 19 21 22 23 25 26 27 29 29 28 29 32 36 38 37 37 35 33 37 40 40 40 41 40 40 41 41 42 44 45 46 48
19 17 15 15 17 17 15 15 17 18 16 17 18 15 12 12 12 11 11 10 10 8 8 8 8 8 7 6 7 6 7 7 7 7 7 8 8 8 8 8 8 8 9 9 9 10 10 10 10 10 11 11 11 12 12 12 13 13 14 15 17 18 18 19 20 22 22 23 24 26 26 29 33 34 32 31 31 33 35 36 37 35 34 36 37 37 36 37 40 40 42 43 42 42 45 46 47
19 20 20 19 18 18 17 16 18 18 17 18 16 13 14 15 13 12 11 10 9 8 8 7 7 7 7 7 7 6 7 6 7 7 7 7 8 8 8 8 9 9 8 9 9 9 10 10 10 10 10 10 11 11 11 12 13 13 14 15 17 18 18 18 20 20 20 20 21 22 22 25 29 32 33 35 33 32 32 33 35 36 37 37 37 38 35 35 40 41 40 41 41 42 42 43 45
18 20 23 21 18 20 20 19 19 18 17 17 15 14 18 19 14 12 13 13 11 9 8 8 8 9 8 8 7 7 7 6 7 7 7 7 7 8 8 9 9 9 9 9 9 9 9 9 10 10 10 10 10 10 11 12 12 13 14 15 16 16 17 17 18 19 19 20 21 22 23 24 26 27 30 32 34 34 33 35 36 37 38 37 37 38 35 35 41 43 39 38 41 44 44 43 45
16 18 22 23 22 23 22 19 19 19 17 18 19 17 17 17 13 13 15 14 12 10 9 9 10 11 10 9 8 7 7 6 6 6 6 7 7 8 9 9 9 9 9 9 9 9 9 9 10 10 10 10 10 10 10 11 11 12 13 14 15 16 17 17 18 20 21 23 24 24 24 25 26 27 28 29 30 31 32 35 37 36 35 35 35 35 34 37 40 39 39 41 43 45 46 46 45
16 21 25 23 22 23 23 22 21 22 19 19 24 20 15 15 12 14 15 12 11 10 10 11 11 12 12 11 10 9 8 7 7 7 8 8 8 9 10 10 10 10 10 10 10 10 10 10 10 10 10 10 10 10 10 11 11 12 13 14 15 16 17 17 19 21 23 24 23 23 23 23 25 26 27 29 30 31 32 33 35 35 35 36 37 37 37 40 41 40 43 46 43 42 46 47 46
20 26 27 24 24 26 28 25 23 24 18 17 23 19 15 17 14 15 15 10 10 11 10 11 11 11 12 12 12 11 10 9 9 9 9 9 9 9 10 10 10 11 11 11 11 11 10 10 10 10 11 10 10 11 11 11 11 12 12 14 15 16 16 18 20 21 21 22 21 20 20 21 23 24 25 27 29 31 32 33 34 36 37 37 36 35 36 37 39 40 42 44 42 43 46 47 47
24 27 27 26 28 28 27 25 23 23 20 20 23 18 15 16 16 16 13 9 11 12 11 11 10 11 11 11 11 11 11 10 10 9 9 10 10 10 10 11 11 11 12 12 12 12 11 11 12 11 11 11 11 11 11 12 12 12 13 14 15 16 17 17 18 19 19 19 18 18 19 20 21 23 24 26 27 29 31 32 33 33 34 35 33 34 36 37 38 39 40 42 44 47 48 47 44
24 25 23 22 26 28 27 28 24 21 25 25 23 22 18 14 15 16 11 9 11 11 11 11 10 10 11 11 11 11 10 10 10 10 9 10 10 10 11 11 11 12 11 12 12 12 12 12 12 12 12 12 12 12 12 13 13 14 15 15 16 16 17 17 17 17 17 17 16 17 18 19 20 21 22 24 25 27 28 30 31 33 35 36 37 38 40 41 41 42 44 45 47 49 47 44 42
26 25 23 21 26 28 27 29 24 22 30 27 22 25 21 15 14 13 11 12 12 11 11 11 10 10 11 11 12 11 11 10 10 10 9 10 10 10 10 10 11 11 11 11 12 12 12 12 12 13 13 13 13 13 14 14 15 15 15 16 16 16 16 16 16 16 16 16 16 17 17 17 18 19 20 21 23 24 26 28 30 33 35 36 37 38 39 40 41 42 44 46 48 49 46 44 46
26 25 24 23 26 26 28 34 28 24 28 24 21 24 20 17 14 11 11 13 13 12 12 11 11 11 12 12 12 12 12 11 11 11 10 10 10 10 10 10 10 11 11 11 12 12 12 13 13 13 14 14 14 14 15 15 15 15 16 16 16 16 16 16 16 16 16 17 17 17 17 17 17 17 18 19 20 23 25 27 29 31 32 34 36 37 38 40 41 43 44 45 46 46 46 48 51
24 23 23 24 27 26 27 35 30 24 24 22 24 24 19 17 14 12 13 12 12 12 11 12 12 11 12 12 13 12 12 12 11 12 11 11 11 11 11 11 11 11 11 12 12 12 13 13 14 14 14 14 14 15 15 16 16 16 16 16 16 16 16 16 16 16 16 16 17 17 17 17 17 17 18 19 20 22 24 26 28 29 30 32 33 34 35 37 39 41 41 42 45 47 49 50 51
25 27 23 22 27 26 27 30 26 26 26 23 24 21 19 17 12 14 15 11 12 13 11 13 12 12 13 13 13 13 12 12 12 12 12 12 12 12 12 12 11 12 12 12 12 12 13 13 13 14 14 14 14 15 15 16 16 16 16 16 16 16 16 16 16 16 16 17 17 17 17 18 18 18 18 19 21 22 24 25 27 28 29 30 31 32 33 34 35 37 39 41 46 51 53 53 53
30 31 25 23 24 24 26 28 26 26 25 23 23 21 20 17 12 15 16 12 14 14 13 14 12 13 14 13 14 13 12 13 12 12 12 12 12 12 13 13 12 13 12 12 12 12 12 12 13 13 14 14 14 14 15 15 15 15 16 16 15 15 15 16 16 16 16 17 17 17 17 18 18 19 19 19 21 22 23 25 26 27 27 28 30 31 32 34 34 37 39 40 43 47 50 53 54
30 29 27 28 27 22 22 23 26 26 20 20 22 19 18 15 11 15 16 13 13 14 14 14 13 14 15 14 15 14 14 13 13 14 13 13 13 13 13 13 13 13 13 13 12 12 12 12 12 13 13 13 14 14 15 15 15 15 15 16 15 15 15 15 15 15 16 16 16 16 17 18 18 19 19 20 20 21 23 24 25 26 27 28 29 31 32 34 36 37 39 40 42 45 47 49 52
29 28 26 26 25 23 21 21 27 30 24 25 24 18 17 15 12 14 14 11 12 13 14 14 13 15 15 16 16 15 15 14 14 15 14 14 14 13 13 13 13 13 13 13 13 13 13 13 13 13 13 14 14 15 15 15 16 16 16 16 16 16 16 16 15 15 15 15 15 16 17 18 19 19 19 20 20 21 23 24 25 25 26 28 29 31 32 34 36 37 38 40 41 44 46 48 50
28 29 26 24 24 24 20 20 26 27 25 30 29 21 18 16 15 15 11 10 12 12 14 14 14 15 16 16 16 16 16 15 15 15 14 15 14 13 14 13 14 14 14 14 14 14 14 14 15 15 15 15 15 16 16 16 16 16 16 16 16 15 16 16 15 15 15 15 15 16 17 18 19 20 20 20 21 22 23 25 25 26 27 29 30 31 33 34 36 37 39 41 42 45 46 47 49
28 27 24 26 29 27 21 21 23 21 21 29 29 24 20 16 15 14 10 11 14 11 13 14 13 15 15 15 15 15 15 15 15 15 15 15 14 14 14 14 14 14 15 15 15 15 15 15 16 15 15 15 15 15 16 16 16 16 16 16 15 15 15 16 16 16 16 16 16 17 18 19 20 20 21 21 21 23 24 25 26 26 28 30 31 33 35 36 37 39 41 42 43 45 46 47 48
25 24 23 25 27 25 23 23 23 20 23 30 28 25 24 19 15 14 10 12 14 12 13 13 12 14 14 14 15 14 15 15 15 16 15 15 15 15 15 15 15 15 15 16 15 15 15 15 15 15 15 16 16 16 16 16 17 16 16 16 15 16 16 17 17 17 18 18 18 18 19 20 21 21 22 22 23 24 25 27 28 29 31 32 33 35 37 38 39 40 42 43 45 46 47 48 49
24 22 21 23 23 24 24 24 25 22 22 27 24 21 23 20 16 15 13 13 14 13 13 13 13 13 13 14 15 15 15 16 16 16 16 16 16 16 16 16 16 16 16 16 16 16 16 16 16 16 16 17 16 17 17 17 17 16 16 17 16 17 18 18 19 19 20 20 20 20 20 21 22 22 23 24 24 27 28 29 30 31 33 35 36 38 39 40 41 42 44 45 46 47 47 49 50